Regional Weather Roundup
Issued by NWS

Home | Current Version | Previous Version | Text Only | Print | Product List | Glossary Off
Versions: 1 2 3 4 5 6 7 8 9 10 11 12 13 14 15 16 17 18 19 20 21 22 23 24 25 26 27 28 29 30 31 32 33 34 35 36 37 38 39 40 41 42 43 44 45 46 47 48 49 50

000
ASUS43 KFSD 300402
RWRSD

WEATHER ROUNDUP FOR SOUTH DAKOTA
NATIONAL WEATHER SERVICE SIOUX FALLS SD
1100 PM CDT FRI AUG 29 2014

NOTE: "FAIR" INDICATES FEW OR NO CLOUDS BELOW 12,000 FEET WITH NO
SIGNIFICANT WEATHER AND/OR OBSTRUCTIONS TO VISIBILITY.


SDZ001>005-009-010-012>017-300500-
NORTHWEST AND NORTH CENTRAL SOUTH DAKOTA

CITY           SKY/WX    TMP DP  RH WIND       PRES   REMARKS
BUFFALO          N/A     57  51  80 E9        29.94S
FAITH            N/A     58  53  84 NE7       30.00R
MOBRIDGE       CLEAR     55  54  96 NE3       29.95R
$$

SDZ012>016-024>037-041>051-057-063-072>074-300500-
SOUTHWEST AND SOUTH CENTRAL SOUTH DAKOTA

CITY           SKY/WX    TMP DP  RH WIND       PRES   REMARKS
RAPID CTY ARPT CLOUDY    63  54  72 NE3       30.03R
PIERRE         CLEAR     61  58  90 N8        29.94R
CUSTER         CLEAR     55  50  83 E6        30.14R
ELLSWORTH AFB  CLOUDY    64  55  73 VRB1      30.03R
PHILIP         CLEAR     63  56  78 E3        29.98R
PINE RIDGE     CLEAR     56  54  93 CALM      30.03R
WINNER         FAIR      63  56  78 NW6       29.96R
$$

SDZ004>011-016>023-039-040-300500-
NORTHEAST SOUTH DAKOTA

CITY           SKY/WX    TMP DP  RH WIND       PRES   REMARKS
ABERDEEN       CLOUDY    61  57  87 N16       29.90R
WATERTOWN      CLOUDY    66  63  90 NW15      29.85R
SISSETON         N/A     64  62  93 N14       29.85R
$$

SDZ017-020-022-023-036>040-048>070-300500-
SOUTHEAST SOUTH DAKOTA

CITY           SKY/WX    TMP DP  RH WIND       PRES   REMARKS
SIOUX FALLS    MOCLDY    67  65  93 CALM      29.82R
HURON          MOCLDY    65  60  84 N13G21    29.88R
CHAMBERLAIN    PTCLDY    64  60  86 N3        29.93R
MITCHELL       CLOUDY    68  64  87 NW12      29.87R
YANKTON        CLOUDY    66  64  94 MISG      29.84R
$$

ABBREVIATIONS USED IN REMARKS
   TC - TEMPERATURE IN CELSIUS
  WCI - WIND CHILL INDEX
   HX - HEAT INDEX
  VSB - VISIBILITY




USA.gov is the U.S. government's official web portal to all federal, state and local government web resources and services.